Weather History for Peru, IL

Change the Weather History Date:

Saturday, May 31, 2014

  Actual Average Record
Temperature  
Mean Temperature 74 °F -  
Max Temperature 90 °F 76 °F 91 °F (1988)
Min Temperature 58 °F 53 °F 40 °F (1972)
Cooling Degree Days 9    
Growing Degree Days 24 (Base 50)    
Moisture  
Dew Point 52 °F    
Average Humidity 47    
Maximum Humidity 81    
Minimum Humidity 23    
Precipitation  
Precipitation 0.00 in - - ()
Sea Level Pressure  
Sea Level Pressure 30.11 in    
Wind  
Wind Speed 9 mph (SE)    
Max Wind Speed 16 mph    
Max Gust Speed 21 mph    
Visibility 10 miles    
Events      
Averages and records for this station are not official NWS values.
T = Trace of Precipitation, MM = Missing Value Source: NWS Daily Summary

Daily Weather History Graph

Daily Weather History Graph

Search for Another Location

Airport:

Trip Planner

Search our weather history database for the weather conditions in past years. The results will help you decide how hot, cold, wet, or windy it might be!

Date:

Astronomy

May. 31, 2014 Rise Set
Actual Time 5:26 AM CDT 8:22 PM CDT
Civil Twilight 4:53 AM CDT 8:56 PM CDT
Nautical Twilight 4:11 AM CDT 9:37 PM CDT
Astronomical Twilight 3:22 AM CDT 10:26 PM CDT
Moon 8:04 AM CDT (5/31) 10:40 PM CDT (5/31)
Length of Visible Light 16h 02m
Length of Day
14h 56m
Waxing Crescent, 8% of the Moon is Illuminated
May 31
Waxing Crescent
Jun 5
First Quarter
Jun 12
Full
Jun 19
Last Quarter
Jun 27
New

Hourly Weather History & Observations

Time (CDT) Temp. Heat Index Dew Point Humidity Pressure Visibility Wind Dir Wind Speed Gust Speed Precip Events Conditions
12:15 AM 65.5 °F - 54.7 °F 68% 30.15 in 10.0 mi East 8.1 mph - N/A   Clear
12:35 AM 64.9 °F - 54.9 °F 70% 30.15 in 10.0 mi East 9.2 mph - N/A   Clear
12:55 AM 64.4 °F - 54.5 °F 70% 30.15 in 10.0 mi East 8.1 mph - N/A   Clear
1:15 AM 63.7 °F - 54.1 °F 71% 30.15 in 10.0 mi East 6.9 mph - N/A   Clear
1:35 AM 63.0 °F - 54.1 °F 73% 30.15 in 10.0 mi East 8.1 mph - N/A   Clear
1:55 AM 62.6 °F - 53.8 °F 73% 30.15 in 10.0 mi East 9.2 mph - N/A   Clear
2:15 AM 62.6 °F - 53.6 °F 72% 30.15 in 10.0 mi ENE 9.2 mph - N/A   Clear
2:35 AM 62.4 °F - 53.2 °F 72% 30.15 in 10.0 mi ENE 6.9 mph - N/A   Clear
2:55 AM 61.2 °F - 52.7 °F 74% 30.15 in 10.0 mi ENE 5.8 mph - N/A   Clear
3:15 AM 60.4 °F - 52.7 °F 76% 30.16 in 10.0 mi ENE 6.9 mph - N/A   Clear
3:35 AM 60.1 °F - 52.7 °F 77% 30.16 in 10.0 mi ENE 6.9 mph - N/A   Clear
3:55 AM 59.9 °F - 52.9 °F 78% 30.16 in 10.0 mi East 6.9 mph - N/A   Clear
4:15 AM 59.9 °F - 53.1 °F 78% 30.16 in 10.0 mi East 5.8 mph - N/A   Clear
4:35 AM 59.7 °F - 53.1 °F 79% 30.16 in 10.0 mi ENE 4.6 mph - N/A   Clear
4:55 AM 59.2 °F - 52.9 °F 80% 30.16 in 10.0 mi ENE 5.8 mph - N/A   Clear
5:15 AM 58.8 °F - 52.7 °F 80% 30.17 in 7.0 mi ENE 5.8 mph - N/A   Clear
5:35 AM 58.5 °F - 52.7 °F 81% 30.17 in 7.0 mi ENE 5.8 mph - N/A   Clear
5:55 AM 58.8 °F - 52.9 °F 81% 30.17 in 7.0 mi ENE 6.9 mph - N/A   Clear
6:15 AM 59.9 °F - 53.6 °F 80% 30.17 in 7.0 mi ENE 5.8 mph - N/A   Clear
6:35 AM 60.4 °F - 53.6 °F 78% 30.17 in 7.0 mi East 6.9 mph - N/A   Clear
6:55 AM 62.4 °F - 54.7 °F 76% 30.17 in 7.0 mi East 8.1 mph - N/A   Clear
7:15 AM 63.9 °F - 54.9 °F 72% 30.17 in 7.0 mi East 5.8 mph - N/A   Clear
7:35 AM 65.8 °F - 55.6 °F 69% 30.17 in 10.0 mi East 3.5 mph - N/A   Clear
7:55 AM 68.4 °F - 55.8 °F 64% 30.17 in 10.0 mi ESE 6.9 mph - N/A   Clear
8:15 AM 69.8 °F - 55.8 °F 61% 30.17 in 10.0 mi SE 9.2 mph - N/A   Clear
8:35 AM 71.2 °F - 56.5 °F 60% 30.17 in 10.0 mi SSE 9.2 mph - N/A   Clear
8:55 AM 72.9 °F - 57.2 °F 58% 30.17 in 10.0 mi SE 8.1 mph - N/A   Clear
9:15 AM 75.2 °F - 57.6 °F 54% 30.16 in 10.0 mi SE 9.2 mph - N/A   Clear
9:35 AM 76.5 °F - 56.5 °F 50% 30.16 in 10.0 mi SE 8.1 mph - N/A   Clear
9:55 AM 78.6 °F - 56.3 °F 46% 30.15 in 10.0 mi SE 5.8 mph - N/A   Clear
10:15 AM 80.4 °F 80.4 °F 55.4 °F 42% 30.15 in 10.0 mi SE 9.2 mph - N/A   Clear
10:35 AM 81.0 °F 80.5 °F 54.1 °F 39% 30.15 in 10.0 mi SE 9.2 mph - N/A   Clear
10:55 AM 82.8 °F 81.7 °F 54.1 °F 37% 30.14 in 10.0 mi ESE 9.2 mph - N/A   Clear
11:15 AM 83.7 °F 82.4 °F 53.8 °F 36% 30.14 in 10.0 mi South 11.5 mph 18.4 mph N/A   Clear
11:35 AM 84.4 °F - 51.3 °F 32% 30.14 in 10.0 mi SSE 11.5 mph - N/A   Clear
11:55 AM 85.3 °F - 50.4 °F 30% 30.13 in 10.0 mi SE 13.8 mph 18.4 mph N/A   Clear
12:15 PM 86.7 °F - 51.3 °F 29% 30.12 in 10.0 mi South 12.7 mph 17.3 mph N/A   Clear
12:35 PM 86.4 °F - 50.4 °F 29% 30.12 in 10.0 mi SE 15.0 mph 18.4 mph N/A   Clear
12:55 PM 87.3 °F - 50.2 °F 28% 30.12 in 10.0 mi South 13.8 mph - N/A   Clear
1:15 PM 88.2 °F - 50.0 °F 27% 30.11 in 10.0 mi SE 10.4 mph 16.1 mph N/A   Clear
1:35 PM 88.5 °F - 50.4 °F 27% 30.10 in 10.0 mi SSE 12.7 mph 18.4 mph N/A   Clear
1:55 PM 88.5 °F - 50.9 °F 27% 30.10 in 10.0 mi SSW 9.2 mph - N/A   Clear
2:15 PM 88.9 °F - 49.5 °F 26% 30.09 in 10.0 mi South 5.8 mph 18.4 mph N/A   Clear
2:35 PM 89.1 °F - 50.5 °F 27% 30.09 in 10.0 mi South 11.5 mph 16.1 mph N/A   Clear
2:55 PM 89.2 °F - 50.9 °F 27% 30.08 in 10.0 mi South 9.2 mph - N/A   Clear
3:15 PM 89.8 °F - 50.2 °F 26% 30.07 in 10.0 mi ESE 8.1 mph - N/A   Clear
3:35 PM 90.1 °F - 50.9 °F 26% 30.06 in 10.0 mi SSE 11.5 mph 17.3 mph N/A   Clear
3:55 PM 89.6 °F - 49.8 °F 25% 30.05 in 10.0 mi ESE 13.8 mph 19.6 mph N/A   Clear
4:15 PM 89.8 °F - 50.4 °F 26% 30.05 in 10.0 mi ESE 15.0 mph 20.7 mph N/A   Clear
4:35 PM 89.8 °F - 50.4 °F 26% 30.04 in 10.0 mi SE 10.4 mph - N/A   Clear
4:55 PM 89.8 °F - 48.4 °F 24% 30.03 in 10.0 mi ESE 16.1 mph 20.7 mph N/A   Clear
5:15 PM 89.8 °F - 49.5 °F 25% 30.04 in 10.0 mi SSE 12.7 mph 19.6 mph N/A   Clear
5:35 PM 89.6 °F - 47.1 °F 23% 30.03 in 10.0 mi SE 12.7 mph 17.3 mph N/A   Clear
5:55 PM 89.2 °F - 46.9 °F 23% 30.03 in 10.0 mi SE 9.2 mph - N/A   Clear
6:15 PM 89.2 °F - 47.7 °F 24% 30.02 in 10.0 mi SE 9.2 mph - N/A   Clear
6:35 PM 88.2 °F - 46.9 °F 24% 30.02 in 10.0 mi SE 10.4 mph - N/A   Clear
6:55 PM 87.8 °F - 48.0 °F 25% 30.03 in 10.0 mi SE 9.2 mph - N/A   Clear
7:15 PM 86.5 °F - 48.0 °F 26% 30.03 in 10.0 mi SE 10.4 mph - N/A   Clear
7:35 PM 85.3 °F - 48.4 °F 28% 30.04 in 10.0 mi SE 9.2 mph - N/A   Clear
7:55 PM 84.2 °F - 48.2 °F 29% 30.04 in 10.0 mi SE 10.4 mph - N/A   Clear
8:15 PM 82.8 °F - 48.2 °F 30% 30.04 in 10.0 mi SE 9.2 mph - N/A   Clear
8:35 PM 81.9 °F - 48.2 °F 31% 30.04 in 10.0 mi SE 10.4 mph - N/A   Clear
8:55 PM 81.5 °F - 48.7 °F 32% 30.04 in 10.0 mi SE 9.2 mph - N/A   Clear
9:15 PM 80.2 °F - 49.1 °F 34% 30.05 in 10.0 mi SSE 8.1 mph - N/A   Clear
9:35 PM 79.9 °F - 48.9 °F 34% 30.06 in 10.0 mi SSE 10.4 mph - N/A   Clear
9:55 PM 78.3 °F - 48.7 °F 35% 30.06 in 10.0 mi SSE 10.4 mph - N/A   Clear
10:15 PM 78.1 °F - 48.9 °F 36% 30.06 in 10.0 mi SSE 10.4 mph - N/A   Clear
10:35 PM 78.1 °F - 48.9 °F 36% 30.06 in 10.0 mi SSE 11.5 mph - N/A   Clear
10:55 PM 78.3 °F - 48.9 °F 36% 30.06 in 10.0 mi SSE 12.7 mph - N/A   Clear
11:15 PM 77.9 °F - 49.5 °F 37% 30.06 in 10.0 mi SSE 12.7 mph 17.3 mph N/A   Clear
11:35 PM 77.9 °F - 50.0 °F 38% 30.06 in 10.0 mi SSE 12.7 mph - N/A   Clear
11:55 PM 77.9 °F - 50.0 °F 38% 30.06 in 10.0 mi SSE 15.0 mph - N/A   Clear